Back to catalog

GAOFEN 1-02

AliveScienceSSO
NORAD 43259·PAYLOAD·🇨🇳 China

Launched Mar 31, 2018 from Taiyuan Satellite Launch Center

Loading…

Next Passes (next 24 hours)

TLE

FreshSource: Space-Track

Epoch: Sep 14, 2026, 23:01 UTC

1 43259U 18031A   26257.95920209  .00000630  00000-0  97905-4 0  9997
2 43259  98.0443 320.1930 0004220  84.3961 275.7729 14.76481353455948

Track GAOFEN 1-02 in real time with AllMySat

Download on the App Store